Junior Varsity Boys 2 Mile
9/2/2017
Lagoon Valley Classic Invitational

  • Individual Results
    PlaceTmPlNo.Name (Yr)TdSchoolTime
  • 11875Antonio Vargas (11)JVJesuit11:51.5
  • 2272Cameron Anderson (11)JVBella Vista12:14.0
  • 331660Vik Singh (12)JVSheldon (ca)12:18.9
  • 4488Zachary Conwell (11)JVBella Vista12:24.6
  • 551661Gavin Sou (11)JVSheldon (ca)12:28.5
  • 66876David Vincent (12)JVJesuit12:32.7
  • 77407Evan Belk (12)JVDavis12:33.5
  • 8 1002Brian Hayden-Brewer (12)JVMcClatchy12:36.1
  • 9899Chris Hatch (12)JVBella Vista12:40.9
  • 1091105Henry Shuo X Zhou (11)JVMonterey Trail12:43.7
  • 1110866Anthony Rogado (11)JVJesuit12:44.9
  • 1211862Luke Moreno (12)JVJesuit12:59.8
  • 1312858Vicente Lamera (11)JVJesuit13:02.1
  • 14131616Junior Castillo (11)JVSheldon (ca)13:13.5
  • 15141639Austin Mellick (12)JVSheldon (ca)13:16.1
  • 161578Sean Bradford (11)JVBella Vista13:16.8
  • 17161478Brenden Lewis (12)JVRio Americano13:20.6
  • 1817839Cole Baer (12)JVJesuit13:23.6
  • 1918370Jeremy Wong (12)JVCosumnes Oaks13:24.6
  • 20191785Turner Lovell (11)JVVacaville13:26.2
  • 2120515Adam Tran (11)JVDavis13:28.3
  • 2221508Nathan Sweet (11)JVDavis13:28.5
  • 23221638Isaac McInnes (11)JVSheldon (ca)13:30.0
  • 24 1012Mark Lambert (12)JVMcClatchy13:35.3
  • 2523514Jayce Tracanna (11)JVDavis13:36.9
  • 26241652Antonio Rocha (11)JVSheldon (ca)13:38.3
  • 27251811Sebastian Ramirez (12)JVVacaville13:39.1
  • 28261624James Easter (11)JVSheldon (ca)13:39.2
  • 2927489Arvind Ramakrishnan (11)JVDavis13:41.4
  • 3028114Joseph Lowenstein (12)JVBella Vista13:43.6
  • 31291766Carson Haven (11)JVVacaville13:43.9
  • 3230327Christian David (11)JVCosumnes Oaks13:45.3
  • 3331323Brandon Casey (11)JVCosumnes Oaks13:47.9
  • 3432433William Ewens (11)JVDavis13:49.7
  • 3533848Nicholas Gamette (11)JVJesuit13:49.9
  • 36341790Trevor Maynard (12)JVVacaville13:50.1
  • 3735296James White (11)JVChristian Brothers13:51.0
  • 38 1659Anthony Simons (11)JVSheldon (ca)13:51.3
  • 3936562Jonah Dage (11)JVDixon13:52.4
  • 4037430Collin Drown (12)JVDavis13:53.2
  • 41 2016Chanakya Sharma (11)JVWhitney13:54.6
  • 42381826Brandyn Silva (12)JVVacaville13:55.1
  • 43 845Robert Ellison (12)JVJesuit13:56.8
  • 4439567Elias Gutierrez (12)JVDixon13:57.2
  • 4540283Evan Recanzone (11)JVChristian Brothers13:57.4
  • 46 482Stephen Nichols (12)JVDavis13:57.9
  • 47 846Benjamin Flores (11)JVJesuit14:01.8
  • 48411795Jordan Mooney (11)JVVacaville14:04.4
  • 49422112Kai Shadden (11)JVKennedy14:04.6
  • 504374Blake Bailey (11)JVBella Vista14:07.4
  • 51 479Ben Moxon (11)JVDavis14:09.9
  • 52 1427Nick Dani (12)JVPleasant Valley14:14.1
  • 53 473Grayson McKim (12)JVDavis14:14.1
  • 54 456Sylus Krall (12)JVDavis14:14.4
  • 55 434Jeremy Falk (12)JVDavis14:17.1
  • 56 192Joseph Bizzy (11)JVCasa Roble14:17.3
  • 57441726Joel Abrams (11)JVVacaville14:19.3
  • 5845295Evan Watkins (12)JVChristian Brothers14:21.2
  • 59 458Eduardo Villalobos D (12)JVDavis14:21.4
  • 6046565Ian Foster (11)JVDixon14:24.4
  • 6147732Arturo Tovar (11)JVFranklin (eg)14:24.6
  • 6248906Cezar Morga (11)JVLathrop14:25.7
  • 6349566Anthony Granillo (11)JVDixon14:26.2
  • 64501442Max Boyken (11)JVRio Americano14:26.7
  • 65 466Evan Long (11)JVDavis14:30.6
  • 66 486Nick Preisler (11)JVDavis14:33.3
  • 67 1979Alex Eickmann (12)JVWhitney14:33.3
  • 68 38James Klassen (12)JVArmijo14:34.9
  • 69 1645Marc Olson (12)JVSheldon (ca)14:35.5
  • 7051887Luis Boiso (12)JVLathrop14:36.2
  • 71 1782Ian Kyte (11)JVVacaville14:36.7
  • 72521250Luis Lopez Perea (11)JVNorth Salinas14:37.2
  • 73531066Mario Lucero (11)JVMonterey Trail14:39.4
  • 74 1781Tyler Knight (11)JVVacaville14:42.7
  • 75 991Jake Austin (11)JVMcClatchy14:43.7
  • 76 1636Ricky Le (11)JVSheldon (ca)14:44.7
  • 77 1613John Biundo (12)JVSheldon (ca)14:46.2
  • 78 1643Aaron Nguyen (11)JVSheldon (ca)14:47.8
  • 79 2024Julian Templeton (12)JVWhitney14:51.8
  • 8054701Joshua Bozarth (11)JVFranklin (eg)14:52.6
  • 815577Adrien Bourassa (12)JVBella Vista14:54.5
  • 82561279Hiroki Terada (11)JVNorth Salinas14:54.7
  • 83 1799Chris Orsi (12)JVVacaville14:55.4
  • 84 1803David Palm (12)JVVacaville14:57.8
  • 85 870David Ryan (12)JVJesuit15:01.5
  • 8657899Fernando Haro (10)JVLathrop15:03.8
  • 87 1829Aaron Spurling (12)JVVacaville15:04.7
  • 88 1780Kenneth Kayo (12)JVVacaville15:08.8
  • 89581551Jeremy Torres (10)JVRiver City15:09.9
  • 90 1736Robert Blair (12)JVVacaville15:10.0
  • 91 123Andrew Payne (11)JVBella Vista15:12.4
  • 92 137Casey Zundel (12)JVBella Vista15:12.8
  • 9359735Philip Wang (12)JVFranklin (eg)15:14.1
  • 94 425Travis Cosgrave (11)JVDavis15:14.6
  • 95 769Carlos Ramirez (11)JVFranklin (s)15:15.3
  • 96 1804Elias Meneses (12)JVVacaville15:15.5
  • 97601091Wesley Smith (12)JVMonterey Trail15:16.2
  • 98 449Preston Hubka (11)JVDavis15:19.0
  • 99 1644Johnny Nguyen (12)JVSheldon (ca)15:19.8
  • 100 519Andrew Vallero (12)JVDavis15:25.5
  • 101 79James Brennan (11)JVBella Vista15:27.1
  • 10261927Joshua Vargas (10)JVLathrop15:27.3
  • 10362356Aiden Payne (12)JVCosumnes Oaks15:27.4
  • 104631101Bubba Echils (11)JVMonterey Trail15:28.0
  • 105 1817Brevin Robertson (11)JVVacaville15:29.3
  • 106641481Ryan Macomber (11)JVRio Americano15:30.2
  • 107652110Noah Cantero (11)JVKennedy15:34.2
  • 108661483Christian Melliza (11)JVRio Americano15:36.2
  • 109 207Robert Kimbler (11)JVCasa Roble15:37.6
  • 110 447Jona Hijmans-Maless (11)JVDavis15:47.5
  • 111672113Xavier Venegas (12)JVKennedy15:48.3
  • 112 1805Christian Panday (11)JVVacaville15:54.1
  • 113 468Dominic Maranta (11)JVDavis15:56.4
  • 114681260Jose Negrete (11)JVNorth Salinas15:58.3
  • 115691038Allen Chiu (12)JVMonterey Trail16:00.7
  • 116 844Arjun Deol (11)JVJesuit16:04.1
  • 117 421Albert Chang (11)JVDavis16:06.0
  • 11870727Jacob Rodriguez (12)JVFranklin (eg)16:06.5
  • 119 1867James Mallard (11)JVVanden16:07.2
  • 12071255Larson Dana (11)JVChristian Brothers16:07.7
  • 121 1839Jalen Ware (11)JVVacaville16:09.6
  • 122 1758Omar El-Mahmoud (11)JVVacaville16:14.1
  • 123722115Aldo Gonzales (11)JVKennedy16:16.1
  • 124731270Efren Reyes (11)JVNorth Salinas16:16.2
  • 12574267David Garza (12)JVChristian Brothers16:18.4
  • 126751546Jon Sullivan (9)JVRiver City16:18.7
  • 127 523Sean West (11)JVDavis16:19.1
  • 128 1808Dustin Pippin (11)JVVacaville16:19.7
  • 129 485Iason Pitsillides (12)JVDavis16:20.2
  • 130761253Moises Manzo (12)JVNorth Salinas16:21.5
  • 131771476Nicolas Lemke (11)JVRio Americano16:22.9
  • 132 1763Parker Goodsen (11)JVVacaville16:24.4
  • 133 478Austin Moore (11)JVDavis16:24.6
  • 134781078Abdul Nawab (11)JVMonterey Trail16:26.2
  • 135 446James Herrgesell (11)JVDavis16:28.6
  • 136 1802Andrew Ownby (11)JVVacaville16:30.0
  • 137 1842Owen Weigart (12)JVVacaville16:30.2
  • 138791903James Treydte (9)JVVenture Academy16:30.7
  • 139 170Elijah McCalister (11)JVBuckingham Charter16:30.8
  • 140 794Brandon Delgado (12)JVInderkum16:31.1
  • 141 1772Jack Hobbs (12)JVVacaville16:32.2
  • 142 1801Brandon Over (11)JVVacaville16:35.4
  • 143 1649Aman Rana (11)JVSheldon (ca)16:35.6
  • 14480357Gerardo Perez (11)JVCosumnes Oaks16:39.9
  • 145 129Maximus Tiner (11)JVBella Vista16:41.9
  • 146811506Nathan Vorhes (11)JVRio Americano16:41.9
  • 147 179Daniel Pelayo (10)JVBuckingham Charter16:43.3
  • 148821528Kyle Looc (10)JVRiver City16:45.0
  • 149 415Gavin Bundy (11)JVDavis16:49.2
  • 150 1757Colin Ellsworth (12)JVVacaville16:51.2
  • 151831544Tyler Smith (9)JVRiver City16:59.8
  • 152 1970Christian Cunningham (11)JVWhitney17:00.8
  • 153841524Ikram Khan (10)JVRiver City17:01.4
  • 154851573Caelan Milligan (9)JVRoseville17:01.6
  • 155 784Sidiki Ba (11)JVInderkum17:04.5
  • 156861234Colby Carrillo (11)JVNorth Salinas17:05.9
  • 15787898Jeffrey Hargreaves (11)JVLathrop17:08.9
  • 158 455Drew Kraft (12)JVDavis17:09.5
  • 159 48Alex Moreno (11)JVArmijo17:10.1
  • 160 785Noah Batiz (12)JVInderkum17:11.0
  • 161881277Emilio Sanchez (12)JVNorth Salinas17:11.5
  • 162891539Antonio Robles (10)JVRiver City17:13.4
  • 163901560Jaden Chauhan (9)JVRoseville17:17.0
  • 164 452Silas Kirsch (11)JVDavis17:20.2
  • 165911565Matthew Hoffman (11)JVRoseville17:21.6
  • 166921542Dennis Sadoma (9)JVRiver City17:24.9
  • 167 1751Miguel Cunanan (12)JVVacaville17:32.1
  • 168 1783Lowel Kyte (11)JVVacaville17:32.2
  • 169931892Connor Morris (11)JVVenture Academy17:34.1
  • 170942114Henry Womack (12)JVKennedy17:35.6
  • 17195564Luis Flores (11)JVDixon17:37.6
  • 172961586Dominic Westberg (9)JVRoseville17:38.5
  • 173971093Cong Thao (11)JVMonterey Trail17:45.0
  • 174981567Owen Kress (11)JVRoseville17:49.6
  • 175 1523Colin Kemp (9)JVRiver City17:50.6
  • 176 1071Kevin Ly (12)JVMonterey Trail17:51.8
  • 17799286Riley Schanberger (12)JVChristian Brothers17:53.8
  • 178100292Spencer Tacherra (11)JVChristian Brothers17:57.4
  • 179 1806Spencer Pihl (11)JVVacaville18:00.7
  • 180101904Russel Martinez (12)JVLathrop18:01.6
  • 1811021503Wesley Tice (11)JVRio Americano18:02.5
  • 182 416Malcolm Burns (11)JVDavis18:03.7
  • 183 1828Thomas Sohnery (11)JVVacaville18:05.1
  • 184 1859Antonio Adams (11)JVVanden18:05.4
  • 185103731Tyler Toan (12)JVFranklin (eg)18:06.5
  • 1861041568Hubert John Lotilla (11)JVRoseville18:06.8
  • 187 250David Cook (11)JVChristian Brothers18:12.6
  • 188 1552Tony Degroot (9)JVRiver City18:15.6
  • 189105881Isaiah Arango (11)JVLathrop18:16.8
  • 1901061877Brian Ayala (11)JVVenture Academy18:21.2
  • 191 774Efren Ruiz (11)JVFranklin (s)18:24.2
  • 1921071582James Templeton (10)JVRoseville18:28.0
  • 193108362Mateo Topete (9)JVCosumnes Oaks18:29.0
  • 194 1061Roger Lee (11)JVMonterey Trail18:30.5
  • 195 1437Sam Robertson (11)JVPleasant Valley18:38.6
  • 196 41Cameron Lucas (12)JVArmijo18:46.3
  • 197 266Aaron Garza (12)JVChristian Brothers19:23.4
  • 198 1540Vincent Robles (10)JVRiver City19:34.9
  • 199 1840Reginald Ware (12)JVVacaville19:37.5
  • 200109738Stanley Yu (12)JVFranklin (eg)19:53.5
  • 201 928Noel Viacrusis (11)JVLathrop20:03.7
  • 2021101905Justin Verdan (11)JVVenture Academy20:08.2
  • 203 749Brandon Garcia (11)JVFranklin (s)20:14.5
  • 204 300Leo Yang (11)JVChristian Brothers20:15.9
  • 205 1561Connor Edmonds (9)JVRoseville20:28.7
  • 206 1550Julian Torrente (10)JVRiver City20:45.6
  • 2071111878Tyrone Beattie (10)JVVenture Academy20:46.9
  • 208 1543Shivam Sharma (11)JVRiver City21:14.4
  • 209 1531Adam Moore (9)JVRiver City21:29.7
  • 210 1545Noel Soliz (12)JVRiver City22:21.8
  • 211 299Oscar Wong (12)JVChristian Brothers22:54.8
  • 212 1527Michael Littlefield (9)JVRiver City23:10.9
  • 213 747Jason Eamilao (12)JVFranklin (s)23:34.7
  • 214 795Samhit Eppanapally (11)JVInderkum23:44.8
  • 215112345Tim Lam (11)JVCosumnes Oaks24:36.7
  • 2161131899Sinjin Singh (11)JVVenture Academy26:36.4
  • Junior Varsity Boys
  • Team Results and Scores
  • 1.40Jesuit (Ave: 12:38.2, Total: 63:11.0, Range: 1:10.6)
    1Antonio VargasJV 11:51.51
    2David VincentJV 12:32.76
    3Anthony RogadoJV 12:44.910
    4Luke MorenoJV 12:59.811
    5Vicente LameraJV 13:02.112
    6Cole BaerJV 13:23.6( 17)
    7Nicholas GametteJV 13:49.9( 33)
  • 2.57Sheldon(ca) (Ave: 12:57.4, Total: 64:47.0, Range: 1:11.1)
    1Vik SinghJV 12:18.93
    2Gavin SouJV 12:28.55
    3Junior CastilloJV 13:13.513
    4Austin MellickJV 13:16.114
    5Isaac McInnesJV 13:30.022
    6Antonio RochaJV 13:38.3( 24)
    7James EasterJV 13:39.2( 26)
  • 3.57Bella Vista (Ave: 12:52.0, Total: 64:19.9, Range: 1:29.6)
    1Cameron AndersonJV 12:14.02
    2Zachary ConwellJV 12:24.64
    3Chris HatchJV 12:40.98
    4Sean BradfordJV 13:16.815
    5Joseph LowensteinJV 13:43.628
    6Blake BaileyJV 14:07.4( 43)
    7Adrien BourassaJV 14:54.5( 55)
  • 4.98Davis (Ave: 13:21.8, Total: 66:48.6, Range: 1:07.9)
    1Evan BelkJV 12:33.57
    2Adam TranJV 13:28.320
    3Nathan SweetJV 13:28.521
    4Jayce TracannaJV 13:36.923
    5Arvind Ramakrishnan 11JV 13:41.427
    6William EwensJV 13:49.7( 32)
    7Collin DrownJV 13:53.2( 37)
  • 5.145Vacaville (Ave: 13:42.9, Total: 68:34.4, Range: 0:28.9)
    1Turner LovellJV 13:26.219
    2Sebastian RamirezJV 13:39.125
    3Carson HavenJV 13:43.929
    4Trevor MaynardJV 13:50.134
    5Brandyn SilvaJV 13:55.138
    6Jordan MooneyJV 14:04.4( 41)
    7Joel AbramsJV 14:19.3( 44)
  • 6.221Cosumnes Oaks (Ave: 14:37.1, Total: 73:05.1, Range: 3:15.3)
    1Jeremy WongJV 13:24.618
    2Christian DavidJV 13:45.330
    3Brandon CaseyJV 13:47.931
    4Aiden PayneJV 15:27.462
    5Gerardo PerezJV 16:39.980
    6Mateo TopeteJV 18:29.0(108)
    7Tim LamJV 24:36.7(112)
  • 7.254Monterey Trail (Ave: 14:49.6, Total: 74:08.0, Range: 3:17.0)
    1Henry Shuo X ZhouJV 12:43.79
    2Mario LuceroJV 14:39.453
    3Wesley SmithJV 15:16.260
    4Bubba EchilsJV 15:28.063
    5Allen ChiuJV 16:00.769
    6Abdul NawabJV 16:26.2( 78)
    7Cong ThaoJV 17:45.0( 97)
  • 8.265Christian Brothers (Ave: 14:55.2, Total: 74:35.7, Range: 2:27.4)
    1James WhiteJV 13:51.035
    2Evan RecanzoneJV 13:57.440
    3Evan WatkinsJV 14:21.245
    4Larson DanaJV 16:07.771
    5David GarzaJV 16:18.474
    6Riley SchanbergerJV 17:53.8( 99)
    7Spencer TacherraJV 17:57.4(100)
  • 9.265Dixon (Ave: 14:51.6, Total: 74:17.8, Range: 3:45.2)
    1Jonah DageJV 13:52.436
    2Elias GutierrezJV 13:57.239
    3Ian FosterJV 14:24.446
    4Anthony GranilloJV 14:26.249
    5Luis FloresJV 17:37.695
  • 10.273Rio Americano (Ave: 15:03.4, Total: 75:16.6, Range: 3:02.3)
    1Brenden LewisJV 13:20.616
    2Max BoykenJV 14:26.750
    3Ryan MacomberJV 15:30.264
    4Christian MellizaJV 15:36.266
    5Nicolas LemkeJV 16:22.977
    6Nathan VorhesJV 16:41.9( 81)
    7Wesley TiceJV 18:02.5(102)
  • 11.304Lathrop (Ave: 15:20.4, Total: 76:41.9, Range: 2:43.2)
    1Cezar MorgaJV 14:25.748
    2Luis BoisoJV 14:36.251
    3Fernando HaroJV 15:03.857
    4Joshua VargasJV 15:27.361
    5Jeffrey HargreavesJV 17:08.987
    6Russel MartinezJV 18:01.6(101)
    7Isaiah ArangoJV 18:16.8(105)
  • 12.325North Salinas (Ave: 15:37.6, Total: 78:07.9, Range: 1:44.3)
    1Luis Lopez PereaJV 14:37.252
    2Hiroki TeradaJV 14:54.756
    3Jose NegreteJV 15:58.368
    4Efren ReyesJV 16:16.273
    5Moises ManzoJV 16:21.576
    6Colby CarrilloJV 17:05.9( 86)
    7Emilio SanchezJV 17:11.5( 88)
  • 13.333Franklin(eg) (Ave: 15:44.9, Total: 78:44.3, Range: 3:41.9)
    1Arturo TovarJV 14:24.647
    2Joshua BozarthJV 14:52.654
    3Philip WangJV 15:14.159
    4Jacob RodriguezJV 16:06.570
    5Tyler ToanJV 18:06.5103
    6Stanley YuJV 19:53.5(109)
  • 14.340Kennedy (Ave: 15:51.8, Total: 79:18.8, Range: 3:31.0)
    1Kai ShaddenJV 14:04.642
    2Noah CanteroJV 15:34.265
    3Xavier VenegasJV 15:48.367
    4Aldo GonzalesJV 16:16.172
    5Henry WomackJV 17:35.694
  • 15.382River City (Ave: 16:27.0, Total: 82:14.8, Range: 1:51.5)
    1Jeremy TorresJV 15:09.958
    2Jon SullivanJV 16:18.775
    3Kyle LoocJV 16:45.082
    4Tyler SmithJV 16:59.883
    5Ikram KhanJV 17:01.484
    6Antonio RoblesJV 17:13.4( 89)
    7Dennis SadomaJV 17:24.9( 92)
  • 16.460Roseville (Ave: 17:25.7, Total: 87:08.3, Range: 0:48.0)
    1Caelan MilliganJV 17:01.685
    2Jaden ChauhanJV 17:17.090
    3Matthew HoffmanJV 17:21.691
    4Dominic WestbergJV 17:38.596
    5Owen KressJV 17:49.698
    6Hubert John LotillaJV 18:06.8(104)
    7James TempletonJV 18:28.0(107)
  • 17.499Venture Academy (Ave: 18:40.3, Total: 93:21.1, Range: 4:16.2)
    1James TreydteJV 16:30.779
    2Connor MorrisJV 17:34.193
    3Brian AyalaJV 18:21.2106
    4Justin VerdanJV 20:08.2110
    5Tyrone BeattieJV 20:46.9111
    6Sinjin SinghJV 26:36.4(113)
Back